Location: Linz
(48.3300°N, 14.3000°E)
Time: 17:30:12
(UTC+01:00)

Vanguard 3 - All Passes

Search period start: 22 November 2017 00:00
Search period end: 02 December 2017 00:00
Orbit: 509 x 3263 km, 33.3° (Epoch: 21 November)

Date Brightness Start Highest point End Pass type
(mag) Time Alt. Az. Time Alt. Az. Time Alt. Az.
22 Nov - 01:13:28 10° W 01:25:46 24° SW 01:39:21 10° S visible
22 Nov - 17:26:51 10° S 17:32:16 18° SE 17:39:37 10° ESE visible
22 Nov - 19:34:26 10° SW 19:43:21 38° SSE 19:57:29 10° ESE visible
22 Nov - 21:44:59 10° WSW 21:56:32 42° S 22:13:23 10° SE visible
22 Nov - 23:57:46 10° W 00:10:32 31° SSW 00:26:08 10° SSE night (unlit)
23 Nov - 02:17:01 10° WSW 02:23:43 13° SW 02:30:41 10° SSW visible
23 Nov - 18:22:18 10° SSW 18:29:25 29° SSE 18:40:22 10° ESE visible
23 Nov - 20:31:42 10° WSW 20:41:33 42° S 20:57:00 10° ESE visible
23 Nov - 22:43:14 10° WSW 22:55:12 36° SSW 23:11:31 10° SE visible
24 Nov - 00:58:06 10° WSW 01:08:52 20° SW 01:21:05 10° S night (unlit)
24 Nov - 17:11:10 10° S 17:16:07 18° SE 17:22:53 10° ESE visible
24 Nov - 19:18:58 10° SW 19:27:08 37° SSE 19:40:14 10° ESE visible
24 Nov - 21:29:28 10° WSW 21:40:03 39° S 21:55:53 10° SE visible
24 Nov - 23:42:16 10° WSW 23:53:46 27° SSW 00:08:13 10° SSE visible
25 Nov - 18:06:50 10° SSW 18:13:19 28° SSE 18:23:20 10° ESE visible
25 Nov - 20:16:16 10° WSW 20:25:17 39° S 20:39:36 10° ESE visible
25 Nov - 22:27:45 10° WSW 22:38:38 33° SSW 22:53:46 10° SE visible
26 Nov - 00:43:12 10° WSW 00:52:06 17° SW 01:02:16 10° S night (unlit)
26 Nov - 16:55:36 10° S 17:00:06 18° SE 17:06:13 10° ESE visible
26 Nov - 19:03:36 10° SW 19:11:02 35° SSE 19:23:01 10° ESE visible
26 Nov - 21:14:04 10° WSW 21:23:41 36° S 21:38:17 10° SE visible
26 Nov - 23:27:01 10° WSW 23:37:08 23° SSW 23:49:59 10° SSE visible
27 Nov - 17:51:27 10° SSW 17:57:20 27° SSE 18:06:23 10° ESE visible
27 Nov - 20:00:57 10° WSW 20:09:07 36° S 20:22:11 10° ESE visible
27 Nov - 22:12:27 10° WSW 22:22:11 29° SSW 22:35:49 10° SSE visible
28 Nov - 00:29:06 10° WSW 00:35:26 13° SW 00:42:32 10° SSW night (unlit)
28 Nov - 16:40:08 10° S 16:44:10 17° SSE 16:49:36 10° ESE visible
28 Nov - 18:48:18 10° SW 18:55:02 33° S 19:05:49 10° ESE visible
28 Nov - 20:58:47 10° WSW 21:07:26 32° S 21:20:34 10° SE visible
28 Nov - 23:12:06 10° WSW 23:20:37 19° SSW 23:31:21 10° S visible
29 Nov - 17:36:09 10° SW 17:41:27 26° SSE 17:49:28 10° ESE visible
29 Nov - 19:45:43 10° WSW 19:53:04 33° S 20:04:44 10° SE visible
29 Nov - 21:57:22 10° WSW 22:05:51 24° SSW 22:17:39 10° SSE visible
30 Nov - 16:24:45 10° S 16:28:20 17° SSE 16:33:03 10° ESE daylight
30 Nov - 18:33:06 10° SW 18:39:08 30° S 18:48:40 10° ESE visible
30 Nov - 20:43:39 10° WSW 20:51:19 28° SSW 21:02:46 10° SE visible
30 Nov - 22:57:44 10° WSW 23:04:15 15° SSW 23:12:08 10° S visible
01 Dec - 17:20:56 10° SW 17:25:40 24° SSE 17:32:39 10° ESE visible
01 Dec - 19:30:35 10° WSW 19:37:08 29° S 19:47:16 10° SE visible
01 Dec - 21:42:33 10° WSW 21:49:40 20° SSW 21:59:14 10° SSE visible
